Wind_Speed
10 10 10 9 5 7 9 14 19 22 19 13 12 7 2 3 6 2 4 1 2 4 5 7 8 8 11 14 13 13 12 12 12 13 13 15 16 15 15 15 14 16 17 16 17 17 16 16 17
13 11 11 11 5 8 8 13 14 15 16 14 12 6 3 1 2 3 2 2 2 3 4 5 7 9 11 13 13 12 9 9 10 11 11 12 13 14 14 14 15 16 16 17 17 18 18 18 19
15 12 12 12 8 10 8 10 13 15 11 6 5 2 3 2 2 2 4 3 3 3 4 5 5 6 7 7 8 10 10 11 11 11 11 12 14 16 18 20 20 21 21 21 22 22 23 23 23
16 14 13 12 13 9 7 9 12 14 10 3 4 3 2 0 1 4 4 5 6 4 4 6 6 4 3 5 7 9 11 11 13 14 15 17 18 20 22 23 24 24 25 26 27 28 28 28 28
18 15 13 12 14 10 8 9 13 14 10 3 3 2 1 0 2 3 3 3 5 5 6 4 2 3 4 4 6 7 8 9 10 11 13 13 15 16 18 20 21 22 23 24 25 25 26 26 26
19 16 14 14 14 11 9 8 14 14 6 9 6 1 2 3 4 3 3 4 4 3 3 2 0 1 2 3 3 5 5 8 9 11 13 14 16 18 18 21 22 24 26 26 27 28 28 28 28
20 19 16 16 15 12 10 6 13 12 11 6 3 2 3 3 4 5 5 5 5 4 3 2 1 1 3 4 5 7 8 9 10 12 15 16 19 21 21 23 25 26 27 28 28 29 29 30 31
22 21 18 17 15 13 11 7 13 15 12 5 4 7 2 2 4 5 7 5 5 4 5 4 2 3 5 5 7 7 8 9 11 13 16 18 20 23 24 25 26 27 29 29 29 29 29 30 31
23 21 18 17 15 16 13 11 16 18 14 11 12 12 5 2 2 3 6 7 6 6 7 7 6 7 8 10 10 11 12 11 15 18 20 23 25 26 26 27 28 28 29 30 31 32 33 33 34
23 20 18 18 18 17 14 14 19 21 18 11 11 9 10 7 5 5 5 7 7 8 8 9 10 11 12 13 15 15 16 19 21 24 26 28 30 31 31 31 32 32 34 35 36 36 36 37 37
23 20 20 18 17 16 16 17 21 23 21 10 9 9 12 13 12 10 8 8 9 9 9 10 11 13 14 15 16 17 20 22 24 26 28 30 31 32 31 32 35 37 37 38 39 39 40 41 42
25 23 21 19 17 19 20 21 22 25 24 15 10 11 13 12 13 10 10 11 11 11 11 11 12 13 15 15 16 18 21 25 27 29 30 32 32 31 33 36 34 36 38 39 41 43 45 45 46
26 25 23 23 23 23 22 24 26 26 23 18 16 15 13 12 11 9 10 11 13 12 11 11 13 13 14 17 19 21 24 27 29 31 32 33 33 35 35 36 36 38 40 42 43 44 45 46 48
28 27 26 25 25 25 27 28 27 23 16 16 18 21 19 16 16 13 12 12 13 12 12 13 13 13 16 20 20 22 26 29 30 30 31 32 34 34 35 37 38 40 42 44 45 44 45 47 49
28 29 29 28 29 30 30 29 24 22 20 22 22 20 18 18 18 17 17 17 17 18 15 12 14 16 18 19 22 24 27 30 30 29 31 35 35 36 37 38 40 42 44 44 43 44 48 48 49
24 26 29 30 32 29 28 21 20 17 17 17 20 19 16 18 20 22 24 26 22 21 19 15 16 16 18 21 24 26 29 31 30 32 35 35 35 37 38 39 41 43 43 42 43 45 44 45 45
20 22 24 24 23 23 20 17 19 19 22 22 18 18 17 18 25 25 20 21 25 26 17 13 14 16 20 23 27 29 31 32 32 34 35 35 37 38 39 41 43 43 41 42 43 40 38 35 36
20 21 20 19 18 17 17 16 21 23 23 25 20 16 11 20 16 15 15 20 21 19 19 17 19 20 23 26 28 30 32 34 35 34 33 35 37 38 40 42 42 40 39 41 41 37 36 34 36
22 21 19 18 17 17 19 21 23 24 25 28 19 16 14 13 16 12 17 21 17 15 19 20 21 22 23 25 30 33 34 34 31 31 33 36 37 38 40 40 40 37 37 38 37 35 32 29 28
23 22 21 22 21 21 26 25 26 25 25 25 20 17 16 16 14 12 16 18 17 16 15 16 19 18 23 27 30 32 28 28 31 33 35 36 36 38 38 38 36 33 34 34 32 30 27 23 22
24 23 24 27 28 28 29 28 27 25 24 22 19 19 15 12 11 11 15 19 17 19 13 11 17 21 25 29 30 29 29 29 32 34 35 35 36 36 37 35 31 31 31 30 28 26 24 21 20
21 26 30 32 31 31 30 30 26 26 25 18 13 14 14 10 10 12 15 15 16 11 14 16 20 22 26 27 28 27 28 31 32 34 33 34 34 35 36 33 29 28 28 27 25 23 22 21 18
23 27 29 32 33 33 31 32 27 27 25 18 19 18 17 13 12 14 16 17 21 11 13 19 22 22 25 27 27 26 29 31 32 31 32 33 34 35 34 30 26 26 25 24 23 21 19 18 18
23 25 25 29 33 35 33 34 34 31 27 23 21 20 18 15 13 16 18 17 15 17 17 22 24 26 28 27 24 26 28 30 29 31 32 32 33 34 31 27 25 25 24 23 22 19 17 17 16
20 22 25 27 32 34 34 38 39 36 33 28 22 19 17 16 17 20 20 17 15 22 20 21 26 27 28 22 24 26 27 28 29 31 31 32 34 33 30 27 25 25 25 23 21 18 15 14 14
25 27 27 29 31 31 33 37 39 38 33 29 26 24 21 21 25 20 15 19 20 19 22 25 25 30 23 23 24 24 26 28 29 30 31 34 34 32 30 28 25 25 25 23 21 20 18 17 17
28 30 31 31 32 30 28 29 30 30 28 25 23 24 24 23 18 18 21 20 21 22 23 24 28 27 23 23 23 24 26 28 29 31 33 33 32 30 29 27 24 25 24 24 22 22 22 21 20
29 32 35 33 35 36 34 32 27 22 22 17 13 15 18 21 21 23 22 21 20 19 16 22 25 23 21 22 23 25 28 29 31 33 34 33 32 30 28 26 24 24 25 24 23 23 24 25 25
24 29 34 40 43 43 40 37 26 20 18 17 18 18 21 23 21 18 19 21 22 20 22 25 21 21 22 22 24 28 30 31 32 34 34 35 32 30 28 26 24 24 26 26 25 25 26 27 27
26 26 32 36 40 42 43 45 32 26 16 11 14 14 19 17 17 20 23 21 22 20 21 24 21 21 21 23 27 30 31 32 34 34 35 35 32 29 28 27 25 26 26 27 27 28 28 29 29
Wind_Direction
266 269 273 269 271 295 331 346 359 19 16 15 36 122 43 289 291 253 256 281 302 298 286 284 282 277 261 261 261 257 253 260 270 274 284 287 289 287 289 289 288 288 286 285 283 280 279 278 277
263 263 265 266 262 279 316 343 360 7 24 68 88 99 76 197 209 186 119 39 31 332 328 302 272 254 254 256 255 256 257 258 259 264 267 272 275 282 285 285 284 285 283 280 281 281 280 277 274
258 257 260 265 263 265 304 333 343 358 16 78 96 44 22 326 281 13 42 12 0 352 326 309 286 283 264 257 266 266 268 271 278 285 291 292 293 293 293 293 290 290 290 289 287 283 283 282 280
255 255 255 257 257 266 291 326 342 353 360 2 133 75 22 14 359 33 23 14 358 346 328 313 313 320 301 280 273 273 270 276 279 286 290 291 292 293 294 294 294 293 293 291 291 290 288 285 282
252 252 251 249 253 262 276 320 336 352 351 293 228 39 350 260 32 24 23 6 351 331 317 298 301 278 272 266 263 269 271 278 285 287 285 289 289 293 293 294 295 293 291 292 292 290 288 287 286
248 251 248 248 251 256 267 310 328 344 358 314 215 256 351 61 39 25 14 8 359 351 313 309 128 300 267 274 280 287 281 286 285 291 294 291 293 291 292 293 292 291 293 293 292 292 291 290 289
242 249 246 244 247 246 259 302 313 330 329 286 207 15 8 57 36 6 2 9 2 330 298 295 339 303 299 290 294 294 297 298 303 304 303 307 305 304 303 301 299 299 298 297 296 294 292 290 287
242 242 238 241 245 243 255 288 300 318 321 285 297 316 275 132 77 18 353 2 342 323 304 292 288 287 285 293 293 292 297 307 302 306 308 308 310 308 305 301 298 298 296 296 295 293 290 287 283
239 238 236 238 243 240 247 284 298 304 312 283 300 312 268 263 82 15 360 346 326 303 296 290 294 287 282 285 287 292 294 300 299 301 307 311 312 311 308 306 303 300 298 296 294 291 289 286 284
234 234 234 235 237 246 262 280 294 298 311 313 302 291 281 286 342 342 334 325 312 302 299 293 288 286 285 289 294 303 311 309 309 310 312 311 310 311 311 310 307 304 301 301 299 297 294 290 286
231 228 231 231 240 253 266 276 285 295 304 314 293 301 290 287 289 309 309 307 305 302 307 300 297 301 305 305 309 314 311 305 304 305 304 305 306 308 308 307 307 306 305 304 301 299 297 294 291
233 230 233 232 234 244 258 273 278 283 292 302 302 285 292 296 287 295 307 302 294 296 299 304 307 301 302 302 301 303 299 300 301 301 302 305 308 309 309 309 307 306 305 303 301 300 298 296 292
237 232 235 234 236 244 260 268 272 278 290 294 296 286 283 287 287 292 297 288 285 286 297 306 298 299 298 295 298 297 298 298 301 304 305 309 312 310 310 308 310 310 309 307 304 302 298 295 291
238 236 238 241 242 247 259 270 276 278 282 281 281 281 267 274 273 271 264 264 267 273 281 282 288 291 289 287 295 301 305 308 308 306 310 310 309 310 311 312 314 313 312 309 307 304 301 297 294
242 241 242 246 252 257 261 264 272 275 273 273 277 268 254 260 268 269 252 244 247 250 253 268 278 281 284 297 307 311 309 309 313 314 314 315 315 314 317 317 317 316 313 311 310 309 305 304 302
247 247 247 250 252 255 257 259 255 258 262 262 272 255 256 269 275 273 253 241 234 240 239 245 263 286 301 302 303 307 311 316 319 316 318 317 316 319 318 318 317 317 316 316 314 313 311 311 312
238 238 239 244 247 249 250 248 255 249 251 263 261 259 275 291 292 281 294 264 268 253 252 261 289 292 298 305 308 313 315 316 314 316 318 319 319 318 319 319 321 320 319 318 320 316 314 318 319
235 238 240 239 240 247 248 251 250 254 256 260 255 259 282 306 313 305 325 332 276 255 266 281 300 306 308 310 315 315 313 314 315 318 319 317 317 320 320 321 321 320 321 323 324 323 316 320 322
233 234 236 238 240 246 253 247 249 247 248 256 257 252 266 283 310 314 324 359 342 238 286 300 306 306 316 315 316 313 315 316 317 318 316 316 318 318 320 321 319 319 323 327 328 327 324 330 332
236 236 232 235 235 243 248 249 255 255 250 254 249 249 269 273 295 307 325 336 344 320 315 314 313 318 317 314 314 318 320 319 317 316 316 317 318 319 321 320 318 320 325 329 329 332 335 340 344
240 239 238 235 239 244 248 253 256 254 254 256 254 258 254 260 286 287 309 316 319 325 338 325 327 323 316 316 318 320 319 317 316 315 316 316 316 319 320 320 318 322 324 325 326 328 333 338 341
238 236 235 240 245 248 254 258 257 258 265 272 274 265 247 255 298 282 297 294 287 325 324 333 326 320 318 318 317 318 315 314 315 314 314 314 317 320 321 319 317 322 323 327 328 334 337 340 347
238 240 241 242 244 249 252 257 258 258 264 274 276 268 258 276 306 287 301 282 275 312 311 315 323 317 319 320 316 315 312 313 312 313 313 317 321 321 320 316 317 321 320 322 324 328 333 338 341
243 250 249 249 247 249 250 248 253 258 266 266 261 255 264 281 313 296 287 286 297 319 315 312 316 320 318 314 313 311 311 311 314 314 318 322 320 320 319 317 318 316 314 316 317 321 326 331 338
246 248 251 248 245 246 246 245 253 260 265 270 266 261 267 275 310 310 287 274 284 310 308 313 315 314 311 310 309 310 311 312 313 319 322 320 318 321 323 320 316 311 307 310 310 311 314 316 320
244 242 243 244 246 246 248 251 256 261 267 269 274 276 280 293 303 298 285 283 299 302 303 305 311 314 310 311 311 312 314 314 320 321 321 319 320 325 324 321 313 312 305 305 304 304 308 311 313
246 246 248 251 255 256 256 261 267 270 273 268 265 273 284 290 291 279 281 292 296 297 295 298 308 311 308 312 314 316 318 321 323 323 321 321 325 327 323 320 313 309 303 302 302 303 304 304 306
256 248 247 248 257 260 264 263 265 272 274 264 253 256 265 276 277 278 289 292 301 305 299 309 308 306 309 315 318 323 325 325 323 323 321 327 329 327 323 319 312 304 300 298 299 301 302 303 304
257 262 256 253 256 259 262 264 261 273 284 260 265 274 280 282 284 282 288 283 293 301 299 310 311 307 313 315 322 326 327 326 324 323 328 331 329 326 321 317 313 306 300 297 296 298 300 302 305
248 258 259 262 259 257 260 264 267 269 269 259 258 257 268 282 278 282 289 289 297 288 300 307 308 304 313 318 326 327 328 325 326 325 332 332 331 327 322 317 315 311 304 299 298 299 300 302 303
Height
5901 5900 5901 5901 5905 5904 5904 5904 5902 5900 5897 5894 5891 5893 5895 5894 5895 5896 5894 5892 5892 5892 5893 5892 5892 5892 5892 5892 5890 5890 5890 5891 5891 5891 5890 5890 5889 5888 5887 5886 5885 5885 5884 5884 5883 5883 5883 5883 5883
5899 5899 5899 5900 5903 5902 5904 5903 5902 5902 5899 5895 5893 5894 5894 5895 5894 5893 5893 5892 5890 5890 5890 5891 5890 5889 5889 5889 5888 5889 5888 5888 5888 5887 5887 5887 5886 5886 5885 5883 5882 5882 5880 5880 5880 5879 5879 5878 5878
5897 5897 5899 5899 5900 5901 5903 5902 5902 5901 5900 5897 5895 5894 5894 5894 5894 5893 5891 5891 5890 5888 5888 5888 5888 5888 5889 5888 5888 5888 5886 5886 5886 5885 5884 5883 5883 5882 5882 5880 5879 5878 5877 5876 5876 5875 5874 5874 5873
5895 5896 5898 5898 5898 5900 5901 5902 5901 5900 5900 5898 5895 5894 5894 5893 5893 5891 5889 5888 5888 5887 5887 5887 5888 5888 5887 5887 5887 5887 5886 5884 5884 5883 5882 5882 5881 5879 5879 5877 5875 5873 5873 5872 5871 5870 5869 5868 5867
5892 5893 5894 5896 5896 5898 5900 5900 5900 5899 5898 5897 5895 5892 5892 5891 5890 5890 5889 5888 5887 5887 5887 5887 5886 5886 5886 5885 5885 5885 5884 5883 5882 5880 5880 5878 5877 5876 5875 5873 5871 5870 5868 5867 5866 5865 5864 5862 5861
5889 5890 5892 5893 5894 5896 5898 5900 5898 5898 5897 5896 5894 5892 5891 5889 5889 5888 5888 5887 5886 5886 5887 5886 5884 5885 5884 5883 5883 5883 5882 5882 5880 5879 5878 5877 5875 5874 5871 5869 5867 5866 5865 5863 5861 5859 5858 5857 5856
5886 5888 5889 5890 5891 5893 5896 5899 5898 5897 5896 5895 5894 5891 5890 5889 5888 5887 5886 5885 5885 5885 5885 5884 5882 5883 5883 5882 5881 5881 5880 5879 5878 5876 5875 5873 5872 5871 5868 5866 5864 5862 5860 5858 5856 5854 5852 5851 5850
5882 5884 5885 5887 5888 5891 5893 5897 5897 5895 5895 5894 5892 5890 5889 5888 5887 5886 5885 5883 5884 5884 5884 5884 5882 5881 5881 5880 5880 5879 5878 5876 5876 5874 5872 5871 5869 5867 5864 5862 5860 5857 5855 5853 5850 5848 5846 5845 5843
5878 5881 5883 5885 5885 5887 5891 5895 5894 5894 5893 5892 5891 5889 5888 5888 5886 5885 5884 5884 5883 5883 5882 5882 5880 5879 5879 5878 5878 5877 5876 5874 5872 5871 5869 5867 5865 5862 5860 5857 5855 5852 5850 5847 5844 5842 5839 5837 5836
5875 5878 5880 5881 5882 5885 5889 5891 5890 5891 5891 5891 5889 5888 5887 5886 5886 5884 5883 5883 5883 5882 5881 5880 5879 5878 5877 5876 5875 5874 5871 5869 5867 5866 5863 5861 5859 5856 5853 5850 5848 5845 5843 5839 5836 5833 5831 5828 5826
5871 5874 5875 5878 5880 5882 5886 5887 5887 5887 5888 5889 5888 5886 5885 5885 5885 5883 5882 5882 5881 5880 5879 5878 5877 5876 5873 5872 5870 5868 5866 5865 5863 5861 5860 5857 5855 5851 5848 5845 5842 5838 5835 5831 5828 5825 5821 5818 5815
5866 5870 5873 5876 5878 5879 5881 5882 5885 5884 5885 5887 5887 5885 5882 5881 5881 5880 5880 5879 5879 5877 5876 5875 5874 5872 5870 5869 5867 5865 5863 5861 5860 5858 5856 5853 5849 5845 5841 5838 5834 5831 5827 5824 5819 5815 5811 5807 5804
5861 5866 5869 5871 5873 5876 5878 5880 5880 5882 5883 5884 5884 5883 5880 5878 5878 5877 5877 5876 5875 5874 5873 5872 5871 5869 5868 5867 5865 5863 5860 5859 5857 5854 5851 5845 5841 5838 5834 5831 5826 5822 5818 5814 5809 5805 5801 5796 5791
5857 5861 5865 5868 5870 5873 5874 5875 5876 5879 5881 5881 5880 5879 5878 5876 5874 5873 5873 5872 5871 5870 5869 5868 5867 5866 5865 5865 5862 5859 5857 5855 5852 5849 5844 5840 5836 5831 5827 5823 5818 5813 5809 5804 5799 5793 5788 5783 5778
5853 5857 5860 5864 5866 5868 5870 5871 5874 5875 5876 5876 5877 5875 5874 5872 5870 5869 5868 5866 5864 5864 5863 5862 5864 5863 5863 5860 5857 5854 5852 5850 5846 5842 5837 5833 5828 5824 5819 5815 5809 5804 5799 5793 5787 5781 5775 5770 5764
5851 5853 5856 5858 5859 5862 5864 5868 5868 5869 5871 5873 5872 5872 5871 5870 5869 5867 5864 5859 5857 5856 5855 5858 5859 5858 5857 5856 5852 5849 5846 5842 5838 5835 5831 5826 5822 5817 5812 5806 5801 5795 5789 5783 5777 5770 5763 5758 5750
5846 5847 5849 5852 5854 5855 5859 5862 5863 5865 5867 5869 5869 5869 5868 5867 5865 5861 5860 5857 5856 5853 5853 5851 5853 5852 5852 5849 5846 5843 5838 5835 5832 5829 5824 5819 5814 5810 5804 5798 5792 5786 5780 5775 5768 5761 5755 5748 5740
5842 5844 5846 5848 5850 5851 5854 5857 5859 5861 5863 5865 5866 5866 5865 5863 5861 5856 5856 5853 5846 5849 5850 5849 5848 5848 5846 5842 5840 5836 5832 5829 5825 5821 5817 5813 5808 5802 5797 5790 5784 5779 5773 5766 5759 5753 5746 5739 5731
5839 5841 5842 5844 5846 5848 5850 5852 5854 5856 5858 5860 5862 5862 5861 5859 5857 5854 5852 5845 5843 5844 5845 5845 5844 5843 5840 5837 5832 5829 5825 5822 5819 5816 5812 5807 5802 5796 5790 5784 5779 5773 5767 5760 5752 5746 5740 5733 5726
5836 5837 5839 5840 5841 5843 5843 5846 5848 5851 5854 5855 5856 5856 5855 5854 5852 5849 5846 5844 5843 5843 5842 5841 5841 5838 5835 5831 5828 5824 5820 5818 5814 5810 5806 5800 5795 5790 5784 5779 5773 5767 5761 5755 5748 5742 5736 5730 5723
5832 5835 5836 5835 5835 5838 5840 5842 5844 5846 5849 5850 5852 5851 5850 5849 5847 5845 5844 5842 5841 5840 5841 5839 5836 5834 5830 5826 5823 5819 5817 5813 5809 5805 5799 5794 5789 5784 5778 5772 5767 5761 5756 5750 5744 5739 5733 5727 5722
5827 5829 5829 5830 5831 5833 5835 5838 5840 5841 5843 5845 5846 5846 5845 5845 5843 5841 5842 5840 5837 5838 5837 5836 5833 5829 5826 5823 5819 5816 5813 5809 5804 5799 5794 5789 5784 5778 5772 5766 5761 5756 5751 5746 5740 5735 5730 5725 5721
5822 5822 5824 5825 5826 5828 5831 5832 5836 5837 5839 5842 5842 5842 5842 5842 5839 5839 5838 5835 5833 5832 5833 5833 5830 5826 5822 5817 5814 5811 5807 5803 5798 5793 5789 5783 5777 5772 5766 5761 5756 5752 5747 5742 5737 5733 5728 5724 5720
5818 5818 5819 5821 5822 5824 5827 5828 5829 5832 5835 5838 5839 5839 5838 5838 5835 5835 5833 5831 5829 5831 5829 5827 5824 5820 5817 5813 5809 5806 5802 5797 5792 5788 5782 5776 5771 5767 5761 5755 5750 5747 5743 5738 5734 5730 5726 5721 5717
5813 5813 5814 5817 5817 5820 5821 5822 5824 5827 5830 5833 5834 5834 5834 5833 5832 5830 5829 5828 5827 5827 5824 5821 5819 5816 5812 5808 5804 5800 5796 5792 5787 5781 5775 5771 5766 5760 5754 5748 5744 5741 5737 5734 5731 5727 5723 5719 5716
5807 5807 5808 5809 5811 5814 5814 5814 5819 5822 5824 5826 5827 5828 5828 5827 5827 5825 5825 5824 5824 5822 5820 5817 5815 5811 5807 5803 5799 5795 5791 5786 5781 5775 5770 5765 5759 5753 5747 5742 5739 5735 5732 5728 5726 5723 5720 5716 5712
5802 5803 5804 5803 5805 5806 5809 5811 5813 5815 5818 5820 5822 5822 5823 5822 5821 5821 5820 5821 5819 5817 5815 5813 5810 5805 5802 5799 5795 5790 5785 5780 5774 5769 5764 5758 5752 5746 5741 5737 5733 5730 5727 5724 5721 5718 5715 5712 5708
5796 5798 5799 5799 5799 5800 5802 5804 5807 5810 5812 5814 5816 5817 5818 5817 5817 5816 5816 5815 5813 5812 5810 5808 5805 5800 5797 5793 5789 5784 5778 5773 5768 5763 5758 5752 5746 5740 5735 5730 5727 5724 5721 5718 5715 5712 5709 5706 5703
5792 5791 5793 5794 5794 5793 5795 5797 5803 5806 5808 5809 5811 5812 5812 5812 5811 5810 5809 5809 5808 5806 5804 5803 5800 5794 5791 5787 5783 5778 5773 5768 5762 5758 5752 5746 5740 5734 5729 5725 5721 5718 5715 5712 5709 5706 5703 5700 5696
5784 5785 5785 5785 5786 5787 5787 5788 5798 5801 5803 5804 5806 5807 5807 5807 5806 5805 5804 5803 5801 5800 5799 5797 5793 5789 5785 5782 5777 5772 5767 5762 5757 5751 5745 5739 5734 5728 5724 5720 5716 5712 5709 5706 5703 5700 5697 5693 5689